Location: Mississauga
(43.5802°N, 79.6166°W)
Time: 10:04:46
(UTC-04:00)

Cosmos 1437 Rocket - Visible Passes

Search period start: 28 May 2015 00:00
Search period end: 07 June 2015 00:00
Orbit: 522 x 560 km, 81.2° (Epoch: 28 May)

Date Brightness Start Highest point End Pass type
(mag) Time Alt. Az. Time Alt. Az. Time Alt. Az.
30 May 5.6 05:01:32 10° NNE 05:04:51 24° ENE 05:08:14 10° SE visible
31 May 5.5 04:54:26 10° NNE 04:57:48 25° ENE 05:01:14 10° SE visible
01 Jun 5.4 04:47:20 10° NNE 04:50:45 25° ENE 04:54:12 10° SE visible
02 Jun 5.3 04:40:14 10° NNE 04:43:41 26° ENE 04:47:11 10° SE visible
03 Jun 5.2 04:33:07 10° NNE 04:36:38 27° ENE 04:40:10 10° SE visible
04 Jun 5.1 04:26:01 10° NNE 04:29:34 28° ENE 04:33:09 10° SE visible
05 Jun 5.0 04:18:55 10° N 04:22:30 29° ENE 04:26:07 10° SE visible
06 Jun 4.9 04:11:49 10° N 04:15:27 30° ENE 04:19:05 10° SE visible
